Water Valley's Hourly Summary for Wednesday, August 26, 2026
Hour Temp
(f)
RH
(%)
Solar Rad.
(MJ/m2)
Rainfall
(in)
Wind
(mph)
Battery
(volts)
8/26/2026 12:00 AM 81 36 0 0 4.02 0
8/26/2026 1:00 AM 84 38 0 0 3.1 0
8/26/2026 2:00 AM 83 56 0 0 1.3 0
8/26/2026 3:00 AM 76 65 0 0 1.46 0
8/26/2026 4:00 AM 72 53 0 0 1.02 0
8/26/2026 5:00 AM 77 66 0 0 1.98 0
8/26/2026 6:00 AM 71 72 0 0 0.46 0
8/26/2026 7:00 AM 69 69 0.03 0 0.72 0
8/26/2026 8:00 AM 72 52 0.29 0 0.44 0
8/26/2026 9:00 AM 82 51 0.19 0 1.56 0
8/26/2026 10:00 AM 85 62 0.2 0 1.86 0
8/26/2026 11:00 AM 87 38 0.7 0 1.35 0
8/26/2026 12:00 PM 93 41 0.53 0 2.79 0
8/26/2026 1:00 PM 94 32 0.89 0 4.19 0
8/26/2026 2:00 PM 99 35 0.32 0 2.28 0
8/26/2026 3:00 PM 97 33 0.56 0 5.98 0
8/26/2026 4:00 PM 98 26 0.66 0 5.95 0
8/26/2026 5:00 PM 100 30 0.44 0 4.08 0
8/26/2026 6:00 PM 97 32 0.23 0 5.5 0
8/26/2026 7:00 PM 94 31 0.05 0 6.77 0
8/26/2026 8:00 PM 92 42 0 0 6.36 0
8/26/2026 9:00 PM 86 39 0 0 3.89 0
8/26/2026 10:00 PM 87 59 0 0 4.69 0
8/26/2026 11:00 PM 80 54 0 0 0 0
Data Summary 85 46 5.09 0.00 2.99 0.00